Temperature
18 18 18 18 18 18 18 18 18 18 18 18 18 18 18 18 18 19 19 18 18 18 18 18 19 19 19 18 18 18 18 18 18 18 18 18 18 18 18 18 17 17 17
18 18 18 18 18 18 18 18 18 18 18 18 18 18 18 18 18 19 19 18 18 18 18 18 18 18 19 19 18 18 18 18 18 18 18 18 18 18 18 18 17 17 17
18 18 18 18 18 18 17 17 17 17 17 17 18 18 18 18 18 18 18 18 18 18 18 18 18 18 18 18 18 18 18 18 18 18 18 17 17 17 17 17 17 17 17
17 17 17 17 17 17 17 17 17 17 17 17 17 17 18 18 18 18 18 18 18 18 18 18 18 18 18 18 18 18 18 18 18 18 18 18 17 17 17 17 17 17 17
17 17 17 17 17 17 17 16 17 17 17 17 17 17 17 18 18 18 18 18 18 18 18 18 18 18 18 18 18 18 18 18 18 18 18 18 17 17 17 17 17 17 17
17 16 16 16 16 16 16 16 16 16 16 16 17 17 17 18 18 18 18 18 18 18 18 18 18 18 18 18 18 18 18 18 18 18 18 18 17 17 17 17 17 17 17
16 16 16 16 16 16 16 16 16 16 16 16 16 17 17 17 18 18 18 18 18 18 18 18 18 18 17 17 17 17 18 18 18 18 17 17 17 17 17 17 17 17 17
16 16 16 15 15 15 15 15 15 15 15 16 16 16 17 17 18 18 18 18 18 18 18 18 18 17 17 17 17 17 17 17 17 17 17 17 17 17 17 17 17 17 17
16 15 15 15 15 15 15 15 15 15 15 15 16 16 17 18 18 18 18 18 18 18 18 18 18 18 17 17 17 17 17 17 17 17 17 17 17 17 17 17 17 17 17
15 15 15 15 15 15 15 14 14 15 15 15 16 16 16 17 17 18 18 18 18 18 18 18 18 18 17 17 17 17 17 17 17 17 17 17 17 17 17 17 17 17 17
15 15 15 14 14 14 14 14 14 14 15 15 15 16 16 17 17 17 18 18 18 18 18 18 18 18 17 17 17 17 17 17 17 17 17 17 17 17 17 17 17 17 16
15 15 15 14 14 14 14 14 14 14 14 14 15 15 15 16 16 17 17 18 18 18 18 18 18 18 17 17 17 17 17 17 17 17 17 17 17 17 17 17 17 17 17
14 15 15 14 14 14 13 13 13 14 14 14 14 15 15 15 16 16 17 17 18 18 18 18 18 17 17 17 17 17 17 17 17 17 17 17 17 17 17 17 17 17 17
13 14 14 14 13 13 13 13 13 13 13 13 14 14 14 15 15 15 16 17 17 18 18 18 17 17 17 17 17 16 16 17 17 17 17 17 17 17 17 17 17 17 17
13 13 13 13 13 13 13 13 13 13 13 13 13 13 14 14 15 15 15 16 16 16 17 17 17 17 17 17 16 16 16 16 16 17 17 17 17 17 17 17 17 17 17
12 12 12 12 12 12 12 12 12 12 12 12 12 13 13 14 14 14 15 15 15 16 16 17 17 17 17 16 16 16 16 16 16 16 16 16 17 17 17 17 17 17 17
11 11 11 11 11 11 12 12 12 12 12 12 12 12 12 13 13 13 14 14 15 15 15 16 16 16 16 16 16 15 15 15 15 16 16 16 16 16 17 17 17 17 17
10 10 10 10 11 11 11 11 11 11 11 11 11 11 12 12 12 13 13 13 14 14 14 15 15 15 15 15 15 15 15 15 15 15 15 16 16 16 16 16 17 17 17
10 10 10 10 10 10 10 11 11 11 11 11 11 11 11 11 11 12 12 12 13 13 14 14 14 14 15 15 15 14 14 14 14 14 15 15 15 15 16 16 16 16 16
9 9 9 9 9 10 10 10 10 10 11 11 11 11 11 11 11 11 11 12 12 12 13 13 14 14 14 14 14 14 14 13 13 13 14 14 14 14 15 15 15 15 15
9 9 9 9 9 9 9 10 10 10 10 10 11 11 11 11 11 11 11 11 11 11 12 12 13 13 13 13 13 14 13 13 12 13 13 13 13 13 14 14 14 14 15
8 8 8 8 8 8 9 9 9 9 10 10 10 10 10 11 11 11 11 11 11 11 11 11 12 12 13 13 13 13 13 12 12 12 12 12 12 12 13 13 13 14 14
8 8 8 8 8 8 8 8 9 9 9 9 10 10 10 10 11 11 11 10 11 11 11 11 11 12 12 13 13 13 13 13 13 12 12 11 11 12 12 12 12 13 13
7 7 7 7 7 7 8 8 8 8 9 9 9 10 10 10 10 10 10 10 10 11 11 11 11 12 12 12 12 13 13 12 12 12 12 11 11 11 11 12 12 12 12
7 7 7 7 7 7 7 7 8 8 8 9 9 9 9 10 10 10 10 10 10 10 10 11 11 11 11 12 12 12 12 12 12 11 11 11 11 11 11 11 11 11 11
7 7 7 7 7 7 7 7 7 7 8 8 9 9 9 9 10 10 10 10 10 10 10 10 11 11 11 11 11 12 12 12 12 11 11 11 11 11 10 10 10 11 11
Wind_Speed
4 4 2 2 5 6 7 8 6 8 9 8 9 9 10 12 13 11 8 17 21 23 22 21 21 22 22 22 22 23 23 23 23 23 22 21 20 19 18 18 17 17 16
2 3 5 5 4 5 5 4 6 7 7 7 8 8 9 10 11 10 9 15 21 23 22 22 23 23 23 23 23 24 24 24 24 24 24 23 22 21 20 20 19 19 19
3 3 5 5 5 7 7 4 4 5 7 8 9 11 10 9 8 9 10 11 16 20 22 23 24 24 24 24 24 24 24 25 25 25 25 25 24 23 22 21 21 21 21
5 3 5 5 5 5 4 5 5 5 7 7 7 9 9 9 10 8 8 10 11 14 20 25 25 25 25 25 25 25 25 25 26 26 26 26 25 24 24 23 23 23 23
5 4 5 4 4 4 5 6 4 5 7 8 8 8 8 8 8 10 9 10 12 14 15 22 26 24 25 25 25 25 25 26 26 26 26 26 25 25 24 24 24 24 24
5 4 4 4 3 3 4 4 4 4 5 5 8 8 7 7 7 9 10 9 9 13 15 15 18 20 25 26 25 25 25 25 26 26 27 26 26 26 26 25 25 25 25
4 4 5 4 3 3 4 4 4 5 5 4 4 6 6 7 8 8 8 7 8 9 11 12 14 15 17 25 25 24 24 24 25 26 26 26 26 27 26 26 26 25 26
3 4 3 4 3 3 4 3 4 4 4 4 4 3 3 5 6 9 7 6 6 6 7 9 11 12 11 13 19 24 23 23 23 23 24 25 25 26 26 26 26 26 25
2 2 3 3 3 3 3 3 3 4 4 4 4 3 3 2 3 4 7 7 7 5 6 7 9 11 11 11 12 19 21 20 20 20 21 22 24 24 25 26 26 26 26
4 3 3 2 2 2 3 4 3 3 4 4 3 4 3 1 1 2 3 5 7 5 4 5 7 7 10 9 10 13 16 15 14 15 17 19 21 22 24 25 26 26 26
6 6 5 3 1 2 1 2 3 3 3 4 3 3 3 3 4 2 3 4 4 5 4 3 3 4 6 8 9 11 14 13 12 12 13 15 17 19 21 23 25 25 25
5 6 5 4 3 2 1 2 2 3 3 4 4 4 3 3 3 3 3 5 6 5 6 5 4 5 5 7 10 14 12 11 10 10 11 12 14 17 19 21 22 23 24
5 5 4 4 4 3 3 2 2 2 3 4 4 4 4 4 4 4 3 4 4 4 5 5 5 5 5 9 12 14 11 9 8 8 9 10 12 14 16 18 20 21 23
8 7 6 4 5 5 5 4 3 3 3 3 5 4 4 4 4 4 3 3 3 3 4 5 4 5 5 9 12 12 9 8 6 5 5 6 8 10 13 15 17 19 20
9 8 7 6 6 6 6 6 5 5 4 4 4 5 5 3 2 4 4 3 3 3 4 4 4 5 6 9 12 9 9 8 6 4 3 2 3 5 8 11 13 14 16
10 9 10 9 9 8 8 8 7 7 7 6 5 5 5 4 3 3 4 3 3 3 3 3 3 5 6 8 10 10 10 11 8 6 4 3 2 1 3 5 8 10 11
9 9 9 10 10 10 9 9 9 8 8 8 7 7 7 6 4 3 3 3 2 2 3 3 2 5 6 7 6 8 10 9 7 8 7 6 5 4 2 2 4 6 7
10 10 10 10 11 11 10 10 11 11 10 9 9 8 8 7 7 5 4 4 3 2 3 4 3 4 6 7 7 7 6 8 9 9 10 9 9 8 7 5 3 3 4
10 10 10 11 11 11 11 11 11 11 10 10 9 9 8 8 7 6 6 5 4 4 2 4 4 3 4 7 7 6 6 6 8 10 11 11 11 12 11 10 9 8 7
11 11 10 11 11 11 12 12 12 12 11 10 10 9 9 9 8 7 7 7 5 5 4 5 5 4 4 6 6 7 6 5 5 7 8 10 11 13 13 13 12 11 10
14 11 10 10 10 11 12 12 11 14 12 11 11 10 10 11 12 9 7 7 7 6 5 5 6 5 5 6 7 6 7 6 5 5 6 5 5 6 8 11 11 12 12
11 11 11 11 12 13 12 9 8 9 9 10 11 11 11 10 12 13 12 10 9 8 7 6 6 6 7 6 6 7 7 8 5 5 5 5 5 6 6 8 10 13 14
12 12 12 12 12 12 14 13 10 7 9 9 10 9 12 13 14 11 12 13 11 11 10 7 7 7 6 8 7 8 9 9 5 7 7 5 5 6 6 9 12 14 15
11 11 12 12 12 13 14 14 13 10 10 10 10 10 10 9 9 10 11 11 10 10 11 9 7 7 6 6 8 7 7 6 7 6 6 5 5 5 6 8 10 13 15
12 12 12 12 12 11 12 13 12 8 8 10 11 11 11 11 12 11 9 9 9 8 12 13 12 9 9 8 7 7 8 10 7 5 3 5 6 6 5 5 8 11 14
11 11 11 11 11 10 11 13 13 8 8 9 9 9 12 12 13 13 9 8 8 7 7 8 9 9 9 9 11 10 10 11 8 5 5 6 8 6 4 3 4 7 9
Wind_Direction
252 276 298 273 251 238 219 219 220 216 217 224 231 224 217 221 231 235 200 191 196 195 195 198 203 208 212 213 212 211 210 211 209 208 207 208 209 208 206 204 204 205 204
270 282 283 279 275 269 263 236 235 237 225 222 232 237 231 228 229 229 209 193 202 202 203 206 209 212 215 216 216 215 213 213 212 210 209 210 211 212 210 209 208 208 208
282 273 274 274 272 270 268 262 256 261 252 237 234 236 235 231 227 222 216 200 204 207 210 213 214 214 217 218 218 218 216 215 214 212 212 212 212 213 212 212 212 211 211
287 277 271 271 272 268 258 251 245 250 252 247 241 238 234 224 224 217 215 212 210 215 214 217 217 216 218 219 220 219 218 217 215 214 214 213 212 213 214 215 214 214 214
302 293 277 273 279 270 255 255 241 242 248 248 244 238 236 226 215 217 212 211 213 212 210 213 215 216 219 220 220 220 219 218 217 215 216 215 213 214 214 216 217 216 215
313 302 284 283 282 280 263 251 252 256 256 255 258 251 236 223 212 213 211 211 212 211 211 209 205 216 220 220 219 220 220 219 218 217 217 217 216 216 216 216 217 218 217
331 309 305 301 281 278 272 259 246 254 249 249 252 260 253 239 221 214 209 210 207 205 208 198 193 200 212 219 218 217 218 218 218 217 218 218 219 219 218 217 218 220 219
318 312 317 301 300 284 275 271 257 256 253 236 224 239 245 233 222 213 196 202 217 202 196 193 190 194 192 194 213 217 218 218 218 218 218 218 219 220 219 219 220 221 221
285 289 304 309 313 299 284 280 253 246 254 263 234 227 241 228 190 207 201 197 195 195 193 182 183 179 187 189 200 208 211 214 218 220 218 218 219 220 219 220 221 222 221
251 239 250 277 310 313 306 292 279 259 256 267 274 258 262 301 257 188 216 191 179 185 197 189 181 166 181 181 177 180 192 200 208 217 221 220 219 219 220 220 222 222 222
259 237 220 207 230 278 312 310 320 301 272 264 267 282 281 267 255 233 216 190 180 177 192 200 174 159 162 156 149 156 169 182 196 211 220 222 220 220 222 223 225 225 223
260 248 218 184 200 217 251 280 281 273 280 282 282 280 281 271 267 260 238 205 192 193 188 182 177 159 154 153 151 146 153 168 187 204 216 222 224 224 223 224 225 226 225
289 279 258 185 202 204 214 228 247 257 252 255 261 272 280 278 281 274 263 250 214 184 169 171 170 152 155 126 133 142 150 162 178 197 212 221 225 225 224 223 225 226 226
292 287 286 247 222 216 225 213 228 231 235 245 250 254 267 274 289 284 274 270 253 214 177 172 157 153 135 126 141 145 144 152 160 180 200 216 225 226 224 224 225 225 224
285 292 299 286 257 232 222 216 228 234 226 230 241 240 242 253 274 294 286 270 244 229 216 192 167 153 132 122 147 140 133 141 140 144 155 186 212 220 221 223 224 224 224
285 277 271 272 268 253 231 220 224 226 223 222 225 235 239 236 239 267 286 275 258 236 232 208 194 152 142 139 148 130 129 130 115 109 98 85 81 161 205 213 215 219 222
288 286 279 273 266 258 247 233 228 224 220 221 221 218 223 223 225 230 251 268 274 254 240 239 177 138 128 126 135 132 140 129 108 97 91 81 75 76 96 157 193 203 207
291 288 282 276 271 264 251 241 235 232 222 221 220 219 217 218 215 222 222 233 242 238 222 227 202 166 146 142 148 146 140 126 114 104 95 85 80 76 76 86 113 141 161
287 283 280 278 274 270 264 253 242 235 228 222 220 219 215 212 215 214 212 218 221 227 211 208 216 198 168 154 149 142 126 124 123 119 101 87 81 78 75 78 85 93 103
289 283 277 274 272 269 265 260 253 242 233 227 221 221 218 212 211 209 214 212 210 212 217 214 208 197 184 166 159 152 145 139 133 123 101 98 92 80 74 74 78 85 92
290 288 286 281 274 268 261 253 251 250 239 231 225 221 221 217 212 203 212 205 201 204 212 217 212 201 191 177 180 172 160 145 125 130 124 115 106 86 73 67 72 81 90
289 285 280 277 273 270 270 264 255 263 257 241 230 222 224 223 212 202 206 203 198 202 207 213 217 209 201 192 188 174 161 156 154 159 135 115 106 91 75 68 76 87 91
292 284 277 273 267 263 260 254 242 248 258 249 236 224 227 224 203 198 203 206 209 215 211 209 214 215 206 195 188 182 177 176 157 155 133 114 100 90 80 77 84 91 95
290 284 278 272 267 262 253 244 235 238 245 244 238 225 220 233 225 202 201 204 207 212 210 214 222 219 218 201 192 188 178 150 124 141 136 125 123 107 96 85 85 95 100
291 284 278 271 265 261 247 238 229 235 237 240 235 228 218 216 220 203 201 204 209 215 215 213 209 209 197 186 179 167 166 156 148 154 149 128 136 122 106 99 95 99 104
290 288 281 271 264 258 242 228 220 229 232 235 232 230 222 214 208 198 200 204 211 217 222 213 206 207 200 192 188 186 179 169 155 157 170 142 152 144 125 122 129 127 113
Height
1521 1522 1522 1521 1521 1521 1520 1520 1522 1523 1524 1526 1528 1529 1530 1531 1532 1534 1535 1536 1538 1541 1543 1545 1548 1550 1553 1555 1557 1560 1562 1565 1567 1570 1572 1575 1577 1579 1581 1583 1586 1588 1590
1517 1517 1517 1517 1516 1517 1517 1517 1517 1518 1519 1520 1522 1523 1525 1526 1527 1529 1530 1531 1533 1535 1537 1540 1542 1545 1548 1550 1553 1555 1558 1561 1563 1566 1568 1571 1573 1576 1578 1581 1583 1585 1588
1512 1512 1511 1511 1511 1511 1511 1511 1511 1512 1513 1515 1516 1518 1519 1520 1522 1523 1524 1526 1527 1529 1532 1534 1537 1540 1542 1545 1547 1550 1553 1556 1559 1562 1564 1567 1570 1572 1575 1577 1580 1582 1585
1508 1507 1507 1506 1506 1505 1505 1504 1505 1506 1507 1509 1510 1512 1513 1515 1516 1517 1518 1519 1521 1524 1526 1529 1532 1534 1537 1539 1542 1544 1547 1551 1554 1556 1559 1562 1565 1568 1571 1573 1576 1579 1581
1505 1504 1503 1502 1501 1500 1499 1499 1499 1500 1502 1503 1505 1506 1507 1508 1511 1512 1513 1514 1516 1519 1521 1524 1526 1529 1531 1534 1536 1539 1542 1545 1548 1551 1554 1557 1560 1563 1566 1569 1571 1574 1577
1501 1500 1499 1498 1497 1496 1495 1494 1494 1495 1497 1498 1499 1500 1501 1503 1505 1507 1509 1510 1512 1515 1517 1519 1521 1523 1526 1528 1531 1533 1536 1539 1542 1545 1548 1551 1554 1557 1560 1563 1566 1569 1572
1498 1496 1495 1494 1493 1492 1491 1491 1490 1491 1492 1493 1494 1495 1496 1498 1500 1501 1504 1506 1508 1510 1513 1515 1517 1519 1521 1523 1526 1528 1530 1533 1536 1539 1542 1545 1548 1551 1555 1558 1561 1564 1567
1494 1493 1492 1490 1489 1488 1487 1487 1487 1487 1489 1490 1491 1492 1493 1495 1495 1498 1499 1502 1504 1506 1508 1510 1512 1515 1517 1519 1521 1523 1525 1528 1531 1534 1536 1539 1542 1546 1549 1552 1555 1559 1562
1491 1490 1488 1487 1486 1485 1484 1484 1483 1485 1485 1487 1488 1489 1491 1491 1491 1494 1496 1498 1500 1502 1504 1507 1509 1511 1514 1515 1517 1519 1521 1523 1526 1528 1531 1533 1536 1540 1543 1546 1549 1553 1556
1488 1486 1485 1484 1483 1482 1482 1482 1481 1482 1483 1483 1484 1486 1488 1489 1490 1491 1493 1495 1496 1499 1502 1504 1506 1508 1510 1512 1513 1514 1516 1518 1521 1523 1525 1528 1531 1534 1537 1540 1543 1547 1550
1485 1483 1481 1480 1480 1479 1479 1479 1479 1480 1480 1481 1481 1483 1484 1486 1487 1490 1490 1492 1494 1496 1498 1501 1503 1505 1506 1508 1509 1511 1512 1514 1516 1518 1520 1523 1525 1528 1531 1534 1537 1541 1544
1481 1480 1478 1476 1476 1476 1476 1476 1476 1476 1477 1478 1478 1480 1482 1483 1484 1486 1488 1489 1490 1493 1495 1497 1499 1501 1503 1505 1506 1507 1509 1510 1512 1513 1515 1517 1520 1522 1525 1528 1531 1534 1538
1477 1476 1475 1473 1472 1472 1472 1472 1472 1473 1473 1474 1474 1476 1477 1479 1481 1483 1485 1486 1487 1489 1491 1494 1496 1498 1500 1501 1503 1504 1505 1506 1507 1509 1511 1513 1515 1517 1520 1523 1526 1529 1532
1472 1471 1471 1470 1468 1468 1468 1468 1468 1468 1469 1469 1470 1471 1472 1475 1477 1479 1481 1483 1484 1486 1488 1490 1493 1495 1497 1498 1500 1501 1502 1503 1504 1505 1506 1508 1510 1512 1514 1517 1520 1523 1526
1467 1466 1465 1464 1464 1463 1463 1463 1463 1464 1464 1464 1465 1466 1467 1469 1471 1474 1476 1479 1481 1482 1484 1487 1489 1491 1493 1495 1496 1497 1499 1499 1501 1502 1503 1504 1505 1507 1510 1512 1515 1517 1520
1461 1459 1459 1458 1458 1458 1458 1458 1458 1458 1459 1459 1460 1461 1462 1463 1465 1468 1470 1473 1475 1478 1480 1483 1485 1487 1490 1491 1493 1494 1495 1496 1497 1499 1499 1500 1501 1503 1505 1507 1510 1512 1515
1453 1452 1451 1451 1451 1451 1452 1452 1452 1453 1453 1454 1455 1456 1456 1458 1459 1461 1463 1466 1469 1472 1474 1478 1481 1483 1486 1487 1490 1492 1493 1494 1495 1496 1497 1497 1498 1499 1501 1503 1505 1507 1510
1446 1445 1444 1443 1443 1443 1444 1445 1445 1447 1447 1448 1449 1450 1451 1453 1454 1455 1457 1460 1463 1466 1470 1473 1476 1479 1482 1484 1487 1489 1490 1491 1492 1493 1494 1494 1495 1496 1498 1499 1501 1503 1505
1439 1437 1436 1435 1435 1435 1436 1437 1438 1439 1441 1442 1443 1445 1446 1447 1449 1450 1452 1454 1457 1460 1464 1468 1470 1473 1477 1480 1483 1486 1487 1488 1490 1491 1492 1492 1493 1494 1495 1496 1497 1499 1501
1432 1430 1428 1427 1426 1426 1427 1428 1429 1431 1433 1435 1437 1438 1440 1442 1444 1445 1447 1449 1451 1454 1458 1462 1465 1468 1472 1475 1479 1481 1484 1486 1488 1489 1490 1491 1491 1492 1493 1494 1495 1496 1498
1424 1422 1420 1419 1418 1418 1418 1419 1420 1423 1425 1427 1429 1432 1434 1436 1438 1440 1442 1444 1446 1448 1451 1455 1459 1462 1466 1469 1473 1477 1480 1483 1485 1486 1488 1489 1490 1491 1491 1492 1493 1494 1496
1417 1414 1412 1410 1409 1409 1410 1411 1412 1414 1416 1419 1422 1424 1428 1430 1433 1435 1437 1439 1442 1444 1446 1449 1453 1456 1459 1464 1468 1472 1476 1479 1481 1484 1485 1487 1489 1490 1491 1491 1492 1493 1494
1409 1406 1403 1402 1400 1400 1401 1402 1403 1405 1408 1411 1414 1418 1421 1425 1427 1429 1432 1434 1436 1439 1442 1444 1447 1450 1454 1459 1463 1467 1471 1474 1477 1479 1483 1485 1487 1488 1490 1491 1492 1493 1494
1401 1398 1395 1393 1392 1391 1392 1393 1394 1397 1400 1403 1407 1411 1414 1418 1422 1424 1427 1429 1431 1433 1436 1439 1442 1446 1450 1454 1459 1463 1466 1471 1474 1477 1480 1483 1485 1487 1489 1490 1492 1493 1494
1394 1391 1388 1385 1384 1383 1384 1385 1386 1388 1391 1395 1400 1404 1408 1412 1416 1420 1422 1424 1427 1430 1432 1435 1439 1442 1445 1449 1453 1457 1461 1465 1468 1473 1476 1479 1482 1485 1487 1489 1491 1493 1494
1388 1384 1381 1379 1377 1376 1376 1378 1379 1382 1385 1389 1394 1398 1402 1406 1410 1414 1417 1420 1423 1425 1428 1431 1434 1437 1441 1444 1448 1452 1456 1459 1463 1468 1472 1476 1479 1482 1485 1488 1490 1492 1494